Location: Nashville
(36.1660°N, 86.7840°W)
Time: 21:00:40
(UTC-05:00)

SO-50 - Pass Details

Date: 23 May 2022
Orbit: 586 x 697 km, 64.6° (Epoch: 29 June)

Event Time Altitude Azimuth Distance (km) Brightness Sun altitude
Rises 21:09:29 0° 318° (NW) 3,079 ? -13.8°
Reaches altitude 10° 21:12:05 10° 307° (NW) 2,157 ? -14.2°
Maximum altitude 21:16:17 28° 249° (WSW) 1,273 ? -14.9°
Drops below altitude 10° 21:20:25 10° 190° (S) 2,122 ? -15.5°
Enters shadow 21:20:53 - 187° (S) 2,281 ? -15.6°
